Back to catalog

STARLINK-5631

AliveCommunicationsVLEO
NORAD 55346·PAYLOAD·🇺🇸 United States

Launched Jan 26, 2023 from Cape Canaveral Space Force Station

Loading…

Next Passes (next 24 hours)

TLE

FreshSource: CelesTrak SupGP

Epoch: Sep 14, 2026, 13:35 UTC

1 55346C 23013R   26257.56645833  .00028672  00000+0  10387-2 0  2576
2 55346  43.0037 316.4122 0002163 277.0610  74.4705 15.27556470    16

Track STARLINK-5631 in real time with AllMySat

Download on the App Store